When you browse on this site, cookies collect data to enhance your experience and personalize the content and advertising you see.
Visit our Privacy Policy to learn more. By continuing to use the site, you agree to this use of cookies and data.
  • In France
  • List of Countries
  • For 7 days
  • Water Temperature
  • Weather Map
  • Weather Widgets
  • user-avatar
    Login

    Hourly Weather Xiancun

    Today, 15 November, Friday

    Time Temperature Precipitation Wind Pressure Humidity
    00:00 +10°C° 0 mm 0 mps 744 mmHg 85%
    01:00 +10°C° 0 mm 0 mps 744 mmHg 86%
    02:00 +9°C° 0 mm 0 mps 743 mmHg 85%
    03:00 +9°C° 0 mm 0 mps 743 mmHg 85%
    04:00 +9°C° 0 mm 0 mps 743 mmHg 85%
    05:00 +9°C° 0 mm 0 mps 743 mmHg 85%
    06:00 +10°C° 0 mm 0 mps 743 mmHg 79%
    07:00 +12°C° 0 mm 0 mps 743 mmHg 72%
    08:00 +14°C° 0 mm 0 mps 743 mmHg 63%
    09:00 +16°C° 0 mm 0 mps 743 mmHg 56%
    10:00 +20°C° 0 mm 1 mps 743 mmHg 49%
    11:00 +22°C° 0 mm 1 mps 743 mmHg 42%
    12:00 +23°C° 0 mm 1 mps 742 mmHg 41%
    13:00 +23°C° 0 mm 1 mps 741 mmHg 40%
    14:00 +23°C° 0 mm 1 mps 741 mmHg 41%
    15:00 +21°C° 0 mm 1 mps 741 mmHg 51%
    16:00 +19°C° 0 mm 1 mps 741 mmHg 61%
    17:00 +16°C° 0 mm 1 mps 741 mmHg 72%
    18:00 +15°C° 0 mm 1 mps 742 mmHg 77%
    19:00 +13°C° 0 mm 0 mps 742 mmHg 82%
    20:00 +12°C° 0 mm 0 mps 742 mmHg 83%
    21:00 +12°C° 0 mm 0 mps 742 mmHg 84%
    22:00 +12°C° 0 mm 0 mps 743 mmHg 84%
    23:00 +11°C° 0 mm 0 mps 743 mmHg 85%

    Tomorrow, 16 November, Saturday

    Time Temperature Precipitation Wind Pressure Humidity
    00:00 +11°C° 0 mm 0 mps 742 mmHg 85%
    01:00 +11°C° 0 mm 0 mps 742 mmHg 86%
    02:00 +12°C° 0 mm 1 mps 741 mmHg 86%
    03:00 +12°C° 0 mm 1 mps 741 mmHg 84%
    04:00 +11°C° 0 mm 0 mps 741 mmHg 81%
    05:00 +11°C° 0 mm 0 mps 741 mmHg 78%
    06:00 +12°C° 0 mm 0 mps 741 mmHg 73%
    07:00 +14°C° 0 mm 0 mps 741 mmHg 68%
    08:00 +15°C° 0 mm 0 mps 742 mmHg 63%
    09:00 +18°C° 0 mm 0 mps 742 mmHg 58%
    10:00 +22°C° 0 mm 1 mps 742 mmHg 53%
    11:00 +24°C° 0 mm 1 mps 742 mmHg 49%
    12:00 +25°C° 0 mm 1 mps 741 mmHg 48%
    13:00 +25°C° 0 mm 1 mps 740 mmHg 48%
    14:00 +26°C° 0 mm 1 mps 740 mmHg 47%
    15:00 +23°C° 0 mm 1 mps 740 mmHg 57%
    16:00 +21°C° 0 mm 1 mps 740 mmHg 68%
    17:00 +19°C° 0 mm 1 mps 740 mmHg 78%
    18:00 +18°C° 0 mm 1 mps 740 mmHg 82%
    19:00 +15°C° 0 mm 0 mps 740 mmHg 86%
    20:00 +14°C° 0 mm 0 mps 740 mmHg 90%
    21:00 +14°C° 0 mm 0 mps 740 mmHg 90%
    22:00 +13°C° 0 mm 0 mps 741 mmHg 90%
    23:00 +13°C° 0 mm 0 mps 741 mmHg 91%

    Day after tomorrow, 17 November, Sunday

    Time Temperature Precipitation Wind Pressure Humidity
    00:00 +13°C° 0 mm 0 mps 741 mmHg 91%
    01:00 +13°C° 0 mm 0 mps 741 mmHg 92%
    02:00 +14°C° 0 mm 1 mps 740 mmHg 93%
    03:00 +14°C° 0 mm 1 mps 740 mmHg 93%
    04:00 +14°C° 0 mm 1 mps 740 mmHg 94%
    05:00 +14°C° 0 mm 1 mps 740 mmHg 94%
    06:00 +16°C° 0 mm 1 mps 741 mmHg 90%
    07:00 +18°C° 0 mm 1 mps 741 mmHg 87%
    08:00 +18°C° 0 mm 0 mps 741 mmHg 83%
    09:00 +20°C° 0 mm 0 mps 741 mmHg 75%
    10:00 +25°C° 0 mm 1 mps 741 mmHg 67%
    11:00 +27°C° 0 mm 1 mps 741 mmHg 59%
    12:00 +28°C° 0 mm 1 mps 740 mmHg 56%
    13:00 +28°C° 0 mm 1 mps 740 mmHg 53%
    14:00 +29°C° 0 mm 1 mps 739 mmHg 50%
    15:00 +27°C° 0 mm 1 mps 739 mmHg 60%
    16:00 +22°C° 0 mm 0 mps 739 mmHg 71%
    17:00 +20°C° 0 mm 0 mps 739 mmHg 82%
    18:00 +19°C° 0 mm 0 mps 739 mmHg 85%
    19:00 +19°C° 0 mm 0 mps 740 mmHg 87%
    20:00 +18°C° 0 mm 0 mps 740 mmHg 90%
    21:00 +18°C° 0 mm 0 mps 740 mmHg 90%
    22:00 +17°C° 0 mm 0 mps 740 mmHg 90%
    23:00 +19°C° 0 mm 1 mps 740 mmHg 90%

    18 November, Monday

    Time Temperature Precipitation Wind Pressure Humidity
    00:00 +19°C° 0 mm 1 mps 740 mmHg 90%
    01:00 +19°C° 0 mm 1 mps 740 mmHg 90%
    02:00 +19°C° 0 mm 1 mps 740 mmHg 90%
    03:00 +19°C° 0 mm 1 mps 741 mmHg 88%
    04:00 +19°C° 0 mm 1 mps 741 mmHg 87%
    05:00 +19°C° 0 mm 1 mps 741 mmHg 86%
    06:00 +20°C° 0 mm 1 mps 742 mmHg 83%
    07:00 +20°C° 0 mm 1 mps 742 mmHg 80%
    08:00 +21°C° 0 mm 1 mps 743 mmHg 78%
    09:00 +23°C° 0 mm 1 mps 743 mmHg 73%
    10:00 +24°C° 0 mm 1 mps 744 mmHg 69%
    11:00 +25°C° 0 mm 1 mps 744 mmHg 64%
    12:00 +24°C° 0.1 mm 1 mps 744 mmHg 70%
    13:00 +23°C° 0.1 mm 1 mps 743 mmHg 75%
    14:00 +22°C° 0.1 mm 1 mps 743 mmHg 81%
    15:00 +21°C° 0.2 mm 1 mps 744 mmHg 83%
    16:00 +20°C° 0.2 mm 1 mps 744 mmHg 85%
    17:00 +19°C° 0.2 mm 1 mps 744 mmHg 87%
    18:00 +19°C° 0.1 mm 1 mps 745 mmHg 88%
    19:00 +19°C° 0.1 mm 1 mps 746 mmHg 89%
    20:00 +18°C° 0.1 mm 1 mps 746 mmHg 90%
    21:00 +18°C° 0.1 mm 1 mps 746 mmHg 89%
    22:00 +16°C° 0.1 mm 1 mps 746 mmHg 89%
    23:00 +16°C° 0.1 mm 1 mps 746 mmHg 88%

    19 November, Tuesday

    Time Temperature Precipitation Wind Pressure Humidity
    00:00 +16°C° 0 mm 1 mps 746 mmHg 88%
    01:00 +15°C° 0 mm 1 mps 746 mmHg 88%
    02:00 +15°C° 0 mm 1 mps 746 mmHg 88%
    03:00 +15°C° 0 mm 1 mps 746 mmHg 88%
    04:00 +14°C° 0 mm 1 mps 746 mmHg 87%
    05:00 +14°C° 0 mm 1 mps 746 mmHg 87%
    06:00 +14°C° 0 mm 1 mps 746 mmHg 84%
    07:00 +14°C° 0 mm 1 mps 747 mmHg 81%
    08:00 +14°C° 0 mm 1 mps 747 mmHg 78%
    09:00 +16°C° 0 mm 1 mps 747 mmHg 66%
    10:00 +18°C° 0 mm 1 mps 747 mmHg 53%
    11:00 +19°C° 0 mm 2 mps 746 mmHg 40%
    12:00 +19°C° 0 mm 2 mps 746 mmHg 38%
    13:00 +19°C° 0 mm 2 mps 745 mmHg 35%
    14:00 +19°C° 0 mm 2 mps 745 mmHg 32%
    15:00 +17°C° 0 mm 2 mps 745 mmHg 41%
    16:00 +16°C° 0 mm 2 mps 745 mmHg 49%
    17:00 +14°C° 0 mm 1 mps 745 mmHg 58%
    18:00 +13°C° 0 mm 1 mps 746 mmHg 62%
    19:00 +12°C° 0 mm 1 mps 746 mmHg 65%
    20:00 +10°C° 0 mm 0 mps 747 mmHg 69%
    21:00 +9°C° 0 mm 0 mps 747 mmHg 71%
    22:00 +9°C° 0 mm 0 mps 747 mmHg 72%
    23:00 +8°C° 0 mm 0 mps 747 mmHg 74%

    20 November, Wednesday

    Time Temperature Precipitation Wind Pressure Humidity
    00:00 +8°C° 0 mm 0 mps 747 mmHg 75%
    01:00 +9°C° 0 mm 1 mps 746 mmHg 76%
    02:00 +9°C° 0 mm 1 mps 746 mmHg 77%
    03:00 +9°C° 0 mm 1 mps 746 mmHg 77%
    04:00 +9°C° 0 mm 1 mps 746 mmHg 76%
    05:00 +9°C° 0 mm 1 mps 746 mmHg 76%
    06:00 +10°C° 0 mm 1 mps 746 mmHg 72%
    07:00 +11°C° 0 mm 1 mps 747 mmHg 68%
    08:00 +12°C° 0 mm 1 mps 747 mmHg 64%
    09:00 +14°C° 0 mm 1 mps 747 mmHg 63%
    10:00 +15°C° 0 mm 1 mps 747 mmHg 61%
    11:00 +18°C° 0 mm 1 mps 747 mmHg 59%
    12:00 +17°C° 0 mm 2 mps 746 mmHg 59%
    13:00 +18°C° 0 mm 2 mps 745 mmHg 58%
    14:00 +18°C° 0 mm 2 mps 745 mmHg 58%
    15:00 +18°C° 0 mm 1 mps 745 mmHg 64%
    16:00 +16°C° 0 mm 1 mps 745 mmHg 70%
    17:00 +15°C° 0 mm 1 mps 745 mmHg 76%
    18:00 +14°C° 0 mm 1 mps 745 mmHg 79%
    19:00 +13°C° 0 mm 1 mps 746 mmHg 82%
    20:00 +12°C° 0 mm 1 mps 746 mmHg 85%
    21:00 +12°C° 0 mm 1 mps 747 mmHg 85%
    22:00 +12°C° 0 mm 1 mps 747 mmHg 84%
    23:00 +12°C° 0 mm 1 mps 747 mmHg 83%
    Show more